Flag for Japan Weather past 2 weeks in Kagoshima, Japan

Now
75 °F

Mild.


Feels Like: 74 °F
Forecast: 71 / 77 °F
Wind: 6 mph from East

Location: Kagoshima

Current Time: Aug 29, 2015 at 12:12:19 PM

Latest Report: Aug 29, 2015 at 11:00 AM


Visibility: N/A

Pressure: 29.81 "Hg

Humidity: 91%

Dew point: 72 °F

Location of KagoshimaLocation

Historic Weather in Kagoshima — Graph

°F

Kagoshima temperature yesterday

Maximum temperature yesterday: 83 °F (at 12:00 PM)
Minimum temperature yesterday: 75 °F (at 4:00 AM)
Average temperature yesterday: 78 °F

Past Weeks' High & Low Weather Summary

 TemperatureHumidityPressure
High92 °F (Aug 21, 3:00 PM)98% (Aug 29, 10:00 AM)29.93 "Hg (Aug 29, 10:00 AM)
Low72 °F (Aug 27, 5:00 AM)50% (Aug 22, 3:00 PM)28.67 "Hg (Aug 25, 3:00 AM)
Average81 °F81%29.72 "Hg
* Reported Aug 14 10:00 AM — Aug 29 10:00 AM, Kagoshima, Weather by CustomWeather, © 2015

Note: Actual official high and low records may vary slightly from our data, if they occured in-between our weather recording intervals... More about our weather records

Advertising

Kagoshima weather history for previous 24 hours

 ConditionsComfort  
Time TempWeatherWind HumidityBarometerVisibility
10:00 AM
Sat, Aug 29
74 °FMild.6 mph98%29.85 "HgN/A
9:00 AM73 °FRain showers. Overcast.3 mph97%29.84 "Hg2 mi
8:00 AM73 °FMild.6 mph97%29.83 "HgN/A
7:00 AM73 °FMild.2 mph96%29.83 "HgN/A
6:00 AM73 °FSprinkles. Overcast.1 mph96%29.82 "Hg4 mi
5:00 AM73 °FMild.5 mph95%29.83 "HgN/A
4:00 AM72 °FMild.1 mph96%29.84 "HgN/A
3:00 AM73 °FRain showers. Overcast.3 mph95%29.85 "Hg4 mi
2:00 AM75 °FMild.5 mph87%29.85 "HgN/A
1:00 AM77 °FWarm.No wind83%29.84 "HgN/A
12:00 AM77 °FWarm.5 mph86%29.84 "HgN/A
11:00 PM
Fri, Aug 28
78 °FWarm.1 mph86%29.84 "HgN/A
10:00 PM78 °FWarm.1 mph82%29.83 "HgN/A
9:00 PM78 °FOvercast.2 mph81%29.84 "Hg16 mi
8:00 PM78 °FWarm.3 mph81%29.83 "HgN/A
7:00 PM80 °FWarm.5 mph65%29.82 "HgN/A
6:00 PM80 °FOvercast.2 mph65%29.82 "Hg16 mi
5:00 PM81 °FWarm.5 mph67%29.82 "HgN/A
4:00 PM81 °FWarm.3 mph72%29.81 "HgN/A
3:00 PM81 °FOvercast.5 mph66%29.81 "Hg16 mi
2:00 PM80 °FWarm.2 mph74%29.82 "HgN/A
12:00 PM83 °FOvercast.3 mph61%29.83 "Hg19 mi
Weather by CustomWeather, © 2015

See weather overviewHow to use our weather pages